Location: Landeleau
(48.2273°N, 3.7285°W)
Time: 09:45:53
(UTC+00:00)

Cosmos 2369 Rocket - Pass Details

Date: 30 March 2020
Orbit: 829 x 852 km, 71.0° (Epoch: 06 June)

Event Time Altitude Azimuth Distance (km) Brightness Sun altitude
Rises 19:29:35 0° 335° (NNW) 3,429 6.0 -8.4°
Reaches altitude 10° 19:32:18 10° 345° (NNW) 2,488 5.1 -8.9°
Maximum altitude 19:37:28 34° 50° (NE) 1,367 3.0 -9.7°
Enters shadow 19:41:53 13° 111° (ESE) 2,233 3.7 -10.4°
